Volver al catálogo

STARLINK-37390

ActivoComunicacionesSSO
NORAD 68782·PAYLOAD·🇺🇸 United States

Lanzado Apr 19, 2026 desde Vandenberg Space Force Base

Loading…

Próximos Pases (próximas 24 horas)

TLE

ActualizadoSource: CelesTrak SupGP

Época: Sep 15, 2026, 04:12 UTC

1 68782C 26086S   26258.17548611 -.00056462  00000+0 -17528-2 0  2586
2 68782  97.2843 293.7112 0001059  91.6753 176.4173 15.33467013    10

Sigue STARLINK-37390 en tiempo real con AllMySat

Download on the App Store